Weather History for KSTP - December, 2012

Change the Weather History Date:

Tuesday, December 25, 2012

  Actual Average Record
Temperature  
Mean Temperature 6 °F -  
Max Temperature 12 °F 23 °F 42 °F (1999)
Min Temperature 0 °F 9 °F -17 °F (2000)
Degree Days  
Heating Degree Days 59    
Moisture  
Dew Point -2 °F    
Average Humidity 70    
Maximum Humidity 80    
Minimum Humidity 61    
Precipitation  
Precipitation 0.00 in - - ()
Sea Level Pressure  
Sea Level Pressure 30.49 in    
Wind  
Wind Speed 8 mph (NW)    
Max Wind Speed 10 mph    
Max Gust Speed -    
Visibility 10 miles    
Events      
Averages and records for this station are not official NWS values.
T = Trace of Precipitation, MM = Missing Value Source: NWS Daily Summary

Daily Weather History Graph

Daily Weather History Graph

Search for Another Location

Airport or City:

Trip Planner

Search our weather history database for the weather conditions in past years. The results will help you decide how hot, cold, wet, or windy it might be!

Date:

Astronomy

Dec. 25, 2012 Rise Set
Actual Time 7:49 AM CST 4:36 PM CST
Civil Twilight 7:15 AM CST 5:10 PM CST
Nautical Twilight 6:38 AM CST 5:47 PM CST
Astronomical Twilight 6:02 AM CST 6:23 PM CST
Moon 2:46 PM CST (12/25) 5:19 AM CST (12/25)
Length of Visible Light 9h 54m
Length of Day
8h 47m
Waxing Gibbous, 94% of the Moon is Illuminated
Dec 25
Waxing Gibbous
Dec 28
Full
Jan 4
Last Quarter
Jan 11
New
Jan 18
First Quarter

Hourly Weather History & Observations

Time (CST) Temp. Windchill Dew Point Humidity Pressure Visibility Wind Dir Wind Speed Gust Speed Precip Events Conditions
12:53 AM 5.0 °F -9.1 °F -2.0 °F 73% 30.36 in 10.0 mi NNW 9.2 mph - N/A   Clear
1:53 AM 3.9 °F -9.4 °F -2.0 °F 76% 30.39 in 10.0 mi NNW 8.1 mph - N/A   Clear
2:53 AM 3.9 °F -10.4 °F -2.9 °F 73% 30.42 in 10.0 mi NW 9.2 mph - N/A   Clear
3:53 AM 1.9 °F -10.6 °F -2.9 °F 80% 30.43 in 10.0 mi NW 6.9 mph - N/A   Clear
4:53 AM 1.9 °F -13.8 °F -2.9 °F 80% 30.45 in 10.0 mi NW 10.4 mph - N/A   Clear
5:53 AM 1.9 °F -13.8 °F -4.0 °F 76% 30.46 in 10.0 mi NW 10.4 mph - N/A   Clear
6:53 AM 1.0 °F -12.9 °F -5.1 °F 75% 30.49 in 10.0 mi NW 8.1 mph - N/A   Clear
7:53 AM -0.0 °F -13.0 °F -6.0 °F 76% 30.51 in 10.0 mi NW 6.9 mph - N/A   Clear
8:53 AM 1.0 °F -11.7 °F -5.1 °F 75% 30.52 in 10.0 mi NW 6.9 mph - N/A   Clear
9:53 AM 1.9 °F -12.9 °F -5.1 °F 72% 30.54 in 10.0 mi NW 9.2 mph - N/A   Clear
10:53 AM 3.9 °F -6.9 °F -4.0 °F 70% 30.55 in 10.0 mi NW 5.8 mph - N/A   Clear
11:53 AM 7.0 °F -3.3 °F -2.0 °F 67% 30.52 in 10.0 mi NW 5.8 mph - N/A   Clear
12:53 PM 9.0 °F 0.6 °F -0.0 °F 67% 30.52 in 10.0 mi WNW 4.6 mph - N/A   Clear
1:53 PM 12.0 °F 4.1 °F 1.0 °F 61% 30.51 in 10.0 mi WNW 4.6 mph - N/A   Clear
2:53 PM 12.0 °F 1.5 °F 1.0 °F 61% 30.49 in 10.0 mi NW 6.9 mph - N/A   Clear
3:53 PM 10.9 °F -1.8 °F -0.0 °F 61% 30.49 in 10.0 mi NW 9.2 mph - N/A   Clear
4:53 PM 9.0 °F -3.2 °F -0.9 °F 64% 30.50 in 10.0 mi NW 8.1 mph - N/A   Clear
5:53 PM 8.1 °F -3.2 °F -0.9 °F 67% 30.53 in 10.0 mi NW 6.9 mph - N/A   Clear
6:53 PM 8.1 °F -3.2 °F -0.9 °F 67% 30.55 in 10.0 mi NW 6.9 mph - N/A   Clear
7:53 PM 7.0 °F -3.3 °F -2.0 °F 67% 30.54 in 10.0 mi NW 5.8 mph - N/A   Clear
8:53 PM 6.1 °F -6.8 °F -2.0 °F 69% 30.51 in 10.0 mi NNW 8.1 mph - N/A   Clear
9:53 PM 6.1 °F -4.3 °F -2.0 °F 69% 30.50 in 10.0 mi NNW 5.8 mph - N/A   Clear
10:53 PM 5.0 °F -2.1 °F -2.9 °F 70% 30.50 in 10.0 mi NW 3.5 mph - N/A   Clear
11:53 PM 3.9 °F -8.2 °F -2.9 °F 73% 30.49 in 10.0 mi NW 6.9 mph - N/A   Clear